Terug naar catalogus

OPS 6630 DEB

ActiefPO
NORAD 9323·DEBRIS·🇺🇸 United States

Gelanceerd Nov 10, 1973 vanaf Vandenberg Space Force Base

Loading…

Volgende Passages (komende 24 uur)

TLE

VersSource: Space-Track

Epoch: Sep 12, 2026, 13:52 UTC

1 09323U 73088F   26255.57806183  .00000024  00000-0  25202-3 0  9991
2 09323  97.0352 129.7161 0024678  57.7137  16.5279 12.59122387327528

Volg OPS 6630 DEB in realtime met AllMySat

Download on the App Store